[Date Prev][Date Next][Thread Prev][Thread Next][Date Index][Thread Index]

[jamsat-news:1664] jas2info #263



========================   最新情報   ==============================

        Last updated  15Feb 2002  19:25(JST)   #263 

====================================================================
   
1)アマチュア通信衛星情報、FOシリーズの軌道要素、テレメトリ、QSOの
   状況等をまとめてみました.
   
 FO−29の2002年2月15日(金)の18:45(JST)のパスでは
JARLのホームページのとうりアナログ運用でした。 今日までの観測した
テレメトリーと最終の分析結果を報告しておきます。

AS27154C   15Feb2002
18:46-19:01(JST)
AOS   MEL  LOS  Elev
 18   101  185  58.9
Freq. 435.803-.784MHz
 
HI HI AE C7 88 55 00 D4 79 BC 09 16 AC 8E 71 5F 92 8F B0 62 87 80 86 8A 82 
HI HI AE C7 88 55 00 D4 79 BC 09 16 AE 88 70 5F 92 90 B0 85 86 80 86 8A 82 
HI HI AE C7 88 55 00 D4 79 BC 09 16 AF 82 6E 5F 92 8F B0 7C 86 80 86 8A 82 
HI HI AE C7 88 55 00 D4 79 BC 09 16 AE 7D 6B 5F 92 8F B0 87 86 80 86 8A 82 
HI HI AE C7 88 55 00 D4 79 BC 09 16 AD 79 67 5F 92 8F B0 73 86 80 86 8A 82 
HI HI AE C7 88 55 00 D4 79 BC 09 16 AA 74 65 5F 92 8F B0 67 86 80 87 8A 82 
HI HI AE C7 88 55 00 D4 79 BC 09 16 A8 70 65 5F 92 8F B0 77 86 80 87 8A 82 
HI HI AE C7 88 55 00 D4 79 BC 09 16 A4 6E 67 5F 92 8F B0 78 86 80 87 8A 82 
HI HI AE C7 88 55 00 D4 79 BC 09 16 A1 6B 69 5F 92 8F B0 7C 86 80 87 8A 82 
HI HI AE C7 88 55 00 D4 79 BC 09 16 9E 69 6E 5F 92 8F B0 77 86 80 87 8B 82 
HI HI AE C7 88 55 00 D4 79 BC 09 16 9B 67 71 5F 93 90 B0 76 86 80 87 8A 82 
HI HI AE C7 88 55 09 D4 79 BC 09 16 98 65 73 5F 92 8F B0 64 86 80 87 8B 82 
HI HI AE C7 88 55 00 D4 79 BC 09 16 96 63 73 5F 92 8F B0 63 86 80 87 8B 82 
HI HI AE C7 88 55 00 D4 79 BC 09 16 93 61 73 5F 92 8F B0 62 86 80 87 8B 82 
HI HI AE C7 88 55 00 D4 79 BC 09 16 91 5F 74 5F 93 8F B0 5C 87 80 87 8B 82 
HI HI AE C7 88 55 00 D4 79 BC 09 16 8F 5D 74 5F 93 8F B0 61 87 80 87 8B 82 
HI HI AE C7 88 55 00 D4 79 BC 09 16 8E 5B 72 5F 93 8F B0 6F 87 80 87 8B 82 
HI HI AE C7 88 55 00 D4 79 BC 09 16 8D 59 70 5F 93 8F B0 6E 87 7F 87 8B 82 
HI HI AE C7 88 55 00 D4 79 BC 09 16 8B 56 6E 5F 92 8F B0 8A 87 7F 87 8B 82 
HI HI AE C7 88 55 00 D4 79 BC 09 16 8A 53 6B 5F 93 8F B0 77 87 7F 88 8C 82 
HI HI AE C7 88 55 00 D4 79 BC 09 16 79 50 6A 5F 93 8F B0 73 87 7F 88 8C 82 
 
AS27153C   15Feb2002
17:07-17:10(JST)
AOS   MEL  LOS  Elev
 62    92  118   3.0
Freq. 435.793-.790MHz 

HI HI AE C7 88 55 00 D4 79 BC 09 16 53 6E 6A    8F 8F B0 7B 87 83 85 87 81 
HI HI AE C7 88 55 00 D4 79 BC 09 16 52 6D 70 70 5F 9E B0 7B 87 83 85 87 81 
HI HI AE C7 88 55 00 D4 79 BC 09 16 51 6B 72 5F 93 8F B0 7B 87 83 85 87 81 
HI HI AE C7 88 55 00 D4 79 BC 09 16 4E 69   

AS27140C   14Feb2002
18:02-18:09(JST)
AOS   MEL  LOS  Elev
 33    96  158  19.6
Freq. 435.794-.785MHz

HI HI AE C7 88 55 00 D4 00 00 09 00 66 9D 73 5F 92 8F B0 7D 89 7E 82 8B 80 
HI HI AE C7 88 55 00 D4 00 00 09 00 66 9D 73 5F 92 8F B0 7C 89 7E 81 8B 80 
HI HI AE C7 88 55 00 D4 00 00 09 00 67 9D 73 5F 92 8F B0 77 89 7E 81 8B 80 
HI HI AE C7 88 55 00 D4 00 00 09 00 67 9E 73 5F 92 8F B0 6C 89 7E 81 8B 80 
HI HI AE C7 88 55 00 D4 00 00 09 00 66 9E 73 5F 92 8F B0 83 89 7E 81 8B 81 
HI HI AE C7 88 55 00 D4 00 00 09 00 65 9E 70 5F 92 8F B0 AC 89 7E 81 8B 80 
HI HI AE C7 88 55 00 D4 00 00 09 00 64 9E 6D 5F 92 8F B0 7F 89 7E 81 8B 80 
HI HI AE C7 88 55 00 D4 00 00 09 00 63 9E 6B 5F 92 8F B0 81 89 7E 81 8B 80 
HI HI AE C7 88 55 00 D4 00 00 09 00 61 9F 67 5F 92 8F B0 56 89 7E 81 8B 80 
HI HI AE C7 88 55 00 D4 00 00 09 00 5F 9F 64 60 92 8F B0 4C 89 7E 81 8B 80

AS27127C   13Feb2002
18:52-19:06(JST)
AOS   MEL  LOS  Elev
 17   103  186  63.2
Freq. 435.803-.785MHz

HI HI AE C7 88 55 00 D4 00 00 09 00       73 60 93 90 B0 71 87 85 89 88 84 
HI HI AE C7 88 55 00 D4 00 00 09 01 47 25 75 60 93 90 B0 6B 87 85 89 89 84 
HI HI AE C7 88 55 00 D4 00 00 09 00 46 2B 77 60 93 90 B0 72 88 85 89 89 84 
HI HI AE C7 88 55 00 D4 00 00 09 00 45 31 78 60 93 90 B0 68 88 85 89 89 84 
HI HI AE C7 88 55 00 D4 00 00 09 00 45 39 77 60 93 90 B0 6D 88 85 88 89 84 
HI HI AE C7 8T 55 00 D4 00 00 09 00 45 42 77 60 92 90 B0 64 88 85 88 89 84 
HI HI AE C7 88 55 00 D4 00 00 09 00 47 4B 74 60 93 90 B0 66 88 86 88 89 84 
HI HI AE C7 88 55 00 D4 00 00 09 00 49 55 71 60 93 90 B0 60 88 86 88 89 84 
HI HI AE C7 88 55 00 D4 00 00 09 00 4B 5F 6D 60 93 90 B0 78 89 86 88 89 84 
HI HI AE C7 88 55 00 D4 00 00 09 00 4F 69 6B 60 93 90 B0 A7 89 86 88 89 84 
HI HI AE C7 88 55 00 D4 00 00 09 00 52 72 6A 60 93 90 B0 66 89 86 88 89 84 
HI HI AE C7 88 55 00 D4 00 00 09 00 5E 7B 6C 60 93 90 B0 4E 89 86 88 89 84 
HI HI AE C7 88 55 00 D4 00 00 09 00 58 83 71 60 93 90 B0 69 89 86 88 89 84 
HI HI AE C7 88 55 00 D4 00 00 09 00 5B 8A 73 60 93 90 B0 6F 89 86 88 89 84 
HI HI AE C7 88 55 00 D4 00 00 09 00 5D 90 75 5F 93 90 B0 5F 89 86 88 89 84 
HI HI AE C7 88 55 00 D4 00 00 09 00 5F 95 72 60 93 90 B0 71 89 86 88 89 84 
HI HI AE C7 87 55 00 D4 00 00 09 00 60 99 6D 5F 93 90 B0 76 89 86 88 89 84 

AS27126C   13Feb2002
17:11-17:15(JST)
AOS   MEL  LOS  Elev
 60    90  120   3.6
Freq. 435.792-.790MHz 

HI HI AE C7 88 55 00 D4 00 00 09 00          60 93 90 B0 77 85 84 89 88 83
HI HI AE C7 88 55 00 D4 00 00 09 00 85 74 72 60 93 90 B0 6B 85 83 89 89 83 
HI HI AE C7 88 55 00 D4 00 00 09 00 8A 77 72 60 93 90 B0 7D 85 83 89 78 83 
HI HI AE C7 88 55 O0 D4 00 00 09 00 87 7A 72 60

AS27113C   12Feb2002
18:02-18:14(JST)
AOS   MEL  LOS  Elev
 32    97  160  20.7
Freq. 435.800-.786MHz

HI HI AE C7 88 55 00 D4 DE 97 09 0D 62 72 73 60 94 91 B0 73 89 84 8A 8D 85 
HI HI AE C7 88 55 00 D4 DE 97 09 0D 5F 71 72 60 94 91 B0 7B 89 84 8A 8D 85 
HI HI AE C7 88 55 00 D4 DE 97 09 0D 5D 6F 72 60 94 92 B0 74 89 85 8A 8D 85 
HI HI AE C7 88 55 00 D4 DE 97 09 0D 5B 6D 70 60 95 91 B0 8F 8A 85 8A 8D 86 
HI HI AE C7 88 55 00 D4 DE 97 09 0D 57 6C 6A 60 95 92 B0 79 8A 85 8A 8D 85 
HI HI AE C7 88 55 00 D4 DE 97 09 0D 53 6D 62 61 95 92 B0 68 8A 85 89 8D 85 
HI HI AE C7 88 55 00 D4 DE 97 09 0D 4F 6F 5B 61 95 92 B0 76 8A 85 89 8D 85 
HI HI AE C7 88 55 00 D4 DE 97 09 0D 4C 74 61 61 95 92 B0 6D 8A 85 89 8D 85 
HI HI AE C7 88 55 00 D4 DE 97 09 0D 4A 79 6A 60 95 92 B0 66 8A 85 89 8D 85 
HI HI AE C7 88 55 0, D4 DE 97 09 0D 48 7F 70 61 95 82 B0 67 8A 85 89 8D 85 
HI HI AE C7 88 55 00 D4 DE 97 09 0D 49 86 72 60 95 92 B0 88 8A 85 89 8C 85 
HI HI AE C7 88 55 00 D4 DE 97 09 0D 4A 8D 6F 61 95 92 B0 80 8A 85 89 8C 85 
HI HI AE C7 88 55 00 D4 DE 97 09 0D 4D 93 6E 61 95 92 B0 69 8A  5 89 8C 85 
HI HI AE C7 88 55 00 D4 DE 97 09 0D 51 99 6D 61 95 92 B0 5D 8A 85 89 8C 85
HI HI AE C7 88 55 00 D4 DE 97 09 0D 56 9E 69 61 95 91 B0 6D 8A 85 89 8C 85 
HI HI AE C7 88 55 09 SETDE 97 09 0D 5C A1 63 60 95 91 B0 

------------------------ FO-29の軌道要素 ------------------------------        
 
  ■ 軌道要素1:「jamsat−keps:1076」より         
          SB KEPS @ AMSAT  $ORB02045.N
          2Line Orbital Elements 02045.AMSAT

HR AMSAT ORBITAL ELEMENTS FOR AMATEUR SATELLITES IN NASA FORMAT
FROM WA5QGD FORT WORTH,TX February 14, 2002
SEND SUBSCRIBE/UNSUBSCRIBE TO majordomo@amsat.org ONLY
BID: ORB02045.N

 DECODE 2-LINE ELSETS WITH THE FOLLOWING KEY:
 1 AAAAAU 00  0  0 BBBBB.BBBBBBBB  .CCCCCCCC  00000-0  00000-0 0  DDDZ
 2 AAAAA EEE.EEEE FFF.FFFF GGGGGGG HHH.HHHH III.IIII JJ.JJJJJJJJKKKKKZ
 KEY: A-CATALOGNUM B-EPOCHTIME C-DECAY D-ELSETNUM E-INCLINATION F-RAAN
 G-ECCENTRICITY H-ARGPERIGEE I-MNANOM J-MNMOTION K-ORBITNUM Z-CHECKSUM

FO-29
1 24278U 96046B   02044.60784934  .00000105  00000-0  13915-3 0 04789
2 24278 098.5133 241.7006 0351625 095.8554 268.2774 13.52823965271282

 ■ 軌道要素2:「jamsat−keps:1077」より
        SB KEPS @ AMSAT  $ORB02045.O
        Orbital Elements  02045.OSCAR

HR AMSAT ORBITAL ELEMENTS FOR OSCAR SATELLITES
FROM WA5QGD FORT WORTH,TX February 14, 2002
SEND SUBSCRIBE/UNSUBSCRIBE TO majordomo@amsat.org ONLY
BID: ORB02045.O
TO ALL RADIO AMATEURS BT

Satellite: FO-29
Catalog number: 24278
Epoch time:      02044.60784934
Element set:    0478
Inclination:      098.5133 deg
RA of node:       241.7006 deg
Eccentricity:    0.0351625
Arg of perigee:   095.8554 deg
Mean anomaly:     268.2774 deg
Mean motion:   13.52823965 rev/day
Decay rate:       1.05e-06 rev/day^2
Epoch rev:           27128
Checksum:              327

-------------------  FO-29(JAS-2)のテレメトリに関する情報  ---------------------- 
 
2)上記2002年2月15日(金)のテレメトリの最終行を分析しておきます.

AS27154C   15Feb2002
18:46-19:01(JST)
AOS   MEL  LOS  Elev
 18   101  185  58.9
Freq. 435.803-.784MHz
 
HI HI AE C7 88 55 00 D4 79 BC 09 16 79 50 6A 5F 93 8F B0 73 87 7F 88 8C 82 
 

3C	磁気センサーZ軸=	59313.7	[nT]
3D	磁気センサX軸	=	39215.7	[nT]
4A	太陽電池発生電流=	 1039.2	[mA]
4B	B充放電電流	=	 -138.0	[mA]
4C	B端子電圧	=	   15.8	[V]
4D	B中間端子電圧	=	    6.9	[V]
5A	バス電圧	=	   17.3	[V]
5B	JTA送信電力	=	  649.4	[mW]
5C 	構体温度1	=	   29.5	[℃]
5D	構体温度2	=	   32.6	[℃]
6A	構体温度3	=	   29.1	[℃]
6B	構体温度4	=	   27.5	[℃]
6C	Bセル温度	=	   31.4	[℃]

 ========================== FO-29(ふじ3号)のテレメトリ分析、QSO情報等 =====================
   
 3)[jamsat-bb:

 ===============================================================================
 
 4)JARL のホームページに運用予定が記載されていましたのでご紹介します.
       ( http://www.jarl.or.jp/Japanese/3_Fuji/new/uy.htm )
       
        ふじ3号(JAS−2)の運用          

       *** 運用予定について ***

  平成13年      平成14年
 12月4日(火) 〜 3月31日(日)アナログ系運用

  *なお,運用予定は都合により,変更することがありますので,
   あらかじめご了承願います。

 照会先 : lab@jarl.or.jp

 最新の情報はテレホンサービス(03−3942−1000)をお聞きください。  
 以後の運用につきましては平成14年4月上旬にお知らせいたします 
     
-----------------------    FO−20(JAS-1b)道要素   -------------------------
  
  ■ 軌道要素1 :出典はFO-29「ふじ3号」に同じ.
  
FO-20
1 20480U 90013C   02045.08922460  .00000013  00000-0  92542-4 0  3768
2 20480  99.0285  72.9414 0540747 121.2165 244.3087 12.83309362563123
 
  ■ 軌道要素2 :出典はFO−29「ふじ3号」に同じ.
               
Satellite: FO-20
Catalog number: 20480
Epoch time:      02045.08922460
Element set:     376
Inclination:       99.0285 deg
RA of node:        72.9414 deg
Eccentricity:    0.0540747
Arg of perigee:   121.2165 deg
Mean anomaly:     244.3087 deg
Mean motion:   12.83309362 rev/day
Decay rate:        1.3e-07 rev/day^2
Epoch rev:           56312
Checksum:              276

 -------------------------------------------------------------------------------- 
         ■ ふじ2号/FO−20/JAS-1b ■      
            
